When you browse on this site, cookies collect data to enhance your experience and personalize the content and advertising you see.
Visit our Privacy Policy to learn more. By continuing to use the site, you agree to this use of cookies and data.
  • In Lithuania
  • List of Countries
  • For 7 days
  • Water Temperature
  • Satellite Maps
  • Weather Map
  • Weather Widgets
  • user-avatar
    Login

    Hourly Weather Hobart

    Today, 16 December, Sunday

    Time Temperature Precipitation Wind Pressure Humidity
    00:00 +18°C° 0.2 mm 4 mps 744 mmHg 98%
    01:00 +18°C° 0.2 mm 4 mps 743 mmHg 98%
    02:00 +18°C° 0.9 mm 4 mps 743 mmHg 98%
    03:00 +18°C° 0.9 mm 4 mps 743 mmHg 98%
    04:00 +18°C° 0 mm 2 mps 742 mmHg 99%
    05:00 +18°C° 1.3 mm 2 mps 742 mmHg 98%
    06:00 +18°C° 1.3 mm 3 mps 741 mmHg 97%
    07:00 +19°C° 1.3 mm 3 mps 741 mmHg 97%
    08:00 +21°C° 0 mm 3 mps 741 mmHg 88%
    09:00 +22°C° 0 mm 3 mps 741 mmHg 79%
    10:00 +25°C° 0 mm 3 mps 740 mmHg 70%
    11:00 +26°C° 0.5 mm 3 mps 740 mmHg 68%
    12:00 +27°C° 0.5 mm 3 mps 739 mmHg 65%
    13:00 +28°C° 0.5 mm 3 mps 739 mmHg 63%
    14:00 +27°C° 1.1 mm 3 mps 739 mmHg 63%
    15:00 +27°C° 1.1 mm 3 mps 738 mmHg 63%
    16:00 +27°C° 1.1 mm 3 mps 738 mmHg 63%
    17:00 +25°C° 1 mm 2 mps 738 mmHg 69%
    18:00 +24°C° 1 mm 2 mps 738 mmHg 74%
    19:00 +21°C° 1 mm 2 mps 738 mmHg 79%
    20:00 +20°C° 0.6 mm 2 mps 738 mmHg 84%
    21:00 +18°C° 0.6 mm 2 mps 738 mmHg 90%
    22:00 +17°C° 0.6 mm 2 mps 739 mmHg 95%
    23:00 +17°C° 0.3 mm 2 mps 738 mmHg 96%

    Tomorrow, 17 December, Monday

    Time Temperature Precipitation Wind Pressure Humidity
    00:00 +16°C° 0.3 mm 2 mps 738 mmHg 97%
    01:00 +16°C° 0.3 mm 2 mps 738 mmHg 97%
    02:00 +16°C° 0 mm 1 mps 738 mmHg 97%
    03:00 +16°C° 0 mm 1 mps 738 mmHg 97%
    04:00 +16°C° 0 mm 1 mps 738 mmHg 97%
    05:00 +18°C° 0.1 mm 1 mps 738 mmHg 95%
    06:00 +19°C° 0.1 mm 1 mps 738 mmHg 94%
    07:00 +19°C° 0.1 mm 1 mps 739 mmHg 92%
    08:00 +20°C° 0.2 mm 1 mps 739 mmHg 87%
    09:00 +20°C° 0.2 mm 2 mps 739 mmHg 82%
    10:00 +21°C° 0.2 mm 2 mps 739 mmHg 77%
    11:00 +20°C° 0.4 mm 3 mps 740 mmHg 79%
    12:00 +20°C° 0.4 mm 4 mps 740 mmHg 81%
    13:00 +19°C° 0.4 mm 5 mps 740 mmHg 83%
    14:00 +17°C° 0.3 mm 5 mps 741 mmHg 85%
    15:00 +16°C° 0.3 mm 5 mps 742 mmHg 87%
    16:00 +15°C° 0.3 mm 6 mps 742 mmHg 88%
    17:00 +15°C° 0.2 mm 5 mps 743 mmHg 89%
    18:00 +15°C° 0.2 mm 5 mps 744 mmHg 90%
    19:00 +14°C° 0.2 mm 5 mps 745 mmHg 90%
    20:00 +14°C° 0.1 mm 5 mps 746 mmHg 92%
    21:00 +13°C° 0.1 mm 5 mps 746 mmHg 93%
    22:00 +13°C° 0.1 mm 4 mps 747 mmHg 95%
    23:00 +13°C° 0.1 mm 4 mps 747 mmHg 95%

    Day after tomorrow, 18 December, Tuesday

    Time Temperature Precipitation Wind Pressure Humidity
    00:00 +12°C° 0.1 mm 4 mps 747 mmHg 96%
    01:00 +12°C° 0.1 mm 4 mps 747 mmHg 96%
    02:00 +12°C° 0.1 mm 4 mps 748 mmHg 96%
    03:00 +12°C° 0.1 mm 4 mps 748 mmHg 96%
    04:00 +11°C° 0.1 mm 3 mps 748 mmHg 96%
    05:00 +12°C° 0.1 mm 3 mps 749 mmHg 96%
    06:00 +12°C° 0.1 mm 3 mps 749 mmHg 95%
    07:00 +12°C° 0.1 mm 3 mps 750 mmHg 94%
    08:00 +12°C° 0.1 mm 3 mps 750 mmHg 89%
    09:00 +13°C° 0.1 mm 3 mps 750 mmHg 85%
    10:00 +14°C° 0.1 mm 3 mps 751 mmHg 80%
    11:00 +14°C° 0 mm 3 mps 751 mmHg 76%
    12:00 +16°C° 0 mm 3 mps 751 mmHg 71%
    13:00 +16°C° 0 mm 3 mps 751 mmHg 67%
    14:00 +17°C° 0 mm 3 mps 751 mmHg 64%
    15:00 +17°C° 0 mm 3 mps 751 mmHg 61%
    16:00 +18°C° 0 mm 3 mps 751 mmHg 58%
    17:00 +17°C° 0 mm 3 mps 751 mmHg 62%
    18:00 +16°C° 0 mm 3 mps 751 mmHg 66%
    19:00 +14°C° 0 mm 3 mps 751 mmHg 70%
    20:00 +13°C° 0 mm 2 mps 752 mmHg 77%
    21:00 +12°C° 0 mm 2 mps 752 mmHg 84%
    22:00 +9°C° 0 mm 2 mps 752 mmHg 92%
    23:00 +9°C° 0 mm 2 mps 752 mmHg 93%

    19 December, Wednesday

    Time Temperature Precipitation Wind Pressure Humidity
    00:00 +8°C° 0 mm 2 mps 751 mmHg 95%
    01:00 +8°C° 0 mm 2 mps 751 mmHg 97%
    02:00 +7°C° 0 mm 2 mps 751 mmHg 98%
    03:00 +7°C° 0 mm 2 mps 751 mmHg 98%
    04:00 +7°C° 0 mm 2 mps 751 mmHg 98%
    05:00 +8°C° 0 mm 2 mps 750 mmHg 92%
    06:00 +10°C° 0 mm 2 mps 750 mmHg 86%
    07:00 +12°C° 0 mm 3 mps 750 mmHg 79%
    08:00 +13°C° 0 mm 3 mps 750 mmHg 74%
    09:00 +14°C° 0 mm 3 mps 750 mmHg 68%
    10:00 +15°C° 0 mm 4 mps 750 mmHg 62%
    11:00 +17°C° 0 mm 4 mps 749 mmHg 61%
    12:00 +18°C° 0 mm 4 mps 749 mmHg 59%
    13:00 +18°C° 0 mm 4 mps 748 mmHg 57%
    14:00 +18°C° 0 mm 4 mps 747 mmHg 58%
    15:00 +19°C° 0 mm 4 mps 747 mmHg 58%
    16:00 +19°C° 0 mm 5 mps 746 mmHg 58%
    17:00 +16°C° 0.5 mm 5 mps 746 mmHg 69%
    18:00 +15°C° 0.5 mm 4 mps 746 mmHg 80%
    19:00 +13°C° 0.5 mm 4 mps 745 mmHg 91%
    20:00 +12°C° 0.2 mm 4 mps 745 mmHg 93%
    21:00 +12°C° 0.2 mm 4 mps 745 mmHg 95%
    22:00 +11°C° 0.2 mm 4 mps 745 mmHg 97%
    23:00 +11°C° 0.2 mm 4 mps 744 mmHg 98%

    20 December, Thursday

    Time Temperature Precipitation Wind Pressure Humidity
    00:00 +11°C° 0.2 mm 4 mps 743 mmHg 98%
    01:00 +11°C° 0.2 mm 4 mps 742 mmHg 98%
    02:00 +11°C° 0.2 mm 4 mps 741 mmHg 98%
    03:00 +11°C° 0.2 mm 4 mps 741 mmHg 98%
    04:00 +11°C° 0.2 mm 4 mps 740 mmHg 98%
    05:00 +11°C° 3.4 mm 4 mps 739 mmHg 98%
    06:00 +12°C° 3.4 mm 4 mps 739 mmHg 98%
    07:00 +12°C° 3.4 mm 3 mps 739 mmHg 98%
    08:00 +12°C° 3.3 mm 4 mps 738 mmHg 98%
    09:00 +13°C° 3.3 mm 4 mps 737 mmHg 98%
    10:00 +13°C° 3.3 mm 4 mps 736 mmHg 98%
    11:00 +13°C° 3.1 mm 5 mps 736 mmHg 98%
    12:00 +13°C° 3.1 mm 5 mps 735 mmHg 98%
    13:00 +13°C° 3.1 mm 5 mps 735 mmHg 98%
    14:00 +13°C° 3.7 mm 5 mps 735 mmHg 98%
    15:00 +13°C° 3.7 mm 5 mps 735 mmHg 98%
    16:00 +12°C° 3.7 mm 4 mps 736 mmHg 98%
    17:00 +12°C° 0.6 mm 4 mps 737 mmHg 98%
    18:00 +12°C° 0.6 mm 4 mps 738 mmHg 98%
    19:00 +11°C° 0.6 mm 4 mps 738 mmHg 98%
    20:00 +11°C° 0.1 mm 4 mps 739 mmHg 98%
    21:00 +11°C° 0.1 mm 4 mps 740 mmHg 98%
    22:00 +10°C° 0.1 mm 3 mps 741 mmHg 98%
    23:00 +10°C° 0.1 mm 3 mps 741 mmHg 98%

    21 December, Friday

    Time Temperature Precipitation Wind Pressure Humidity
    00:00 +10°C° 0.1 mm 3 mps 741 mmHg 98%
    01:00 +10°C° 0.1 mm 3 mps 741 mmHg 98%
    02:00 +10°C° 0.2 mm 3 mps 741 mmHg 98%
    03:00 +10°C° 0.2 mm 3 mps 741 mmHg 98%
    04:00 +10°C° 0.2 mm 3 mps 741 mmHg 98%
    05:00 +10°C° 0.1 mm 3 mps 742 mmHg 96%
    06:00 +11°C° 0.1 mm 3 mps 742 mmHg 94%
    07:00 +11°C° 0.1 mm 3 mps 743 mmHg 92%
    08:00 +13°C° 0.1 mm 3 mps 743 mmHg 84%
    09:00 +14°C° 0.1 mm 3 mps 743 mmHg 76%
    10:00 +16°C° 0.1 mm 3 mps 743 mmHg 68%
    11:00 +16°C° 0.2 mm 3 mps 743 mmHg 70%
    12:00 +17°C° 0.2 mm 3 mps 743 mmHg 71%
    13:00 +17°C° 0.2 mm 3 mps 743 mmHg 73%
    14:00 +17°C° 0.4 mm 3 mps 743 mmHg 76%
    15:00 +15°C° 0.4 mm 4 mps 743 mmHg 80%
    16:00 +15°C° 0.4 mm 4 mps 743 mmHg 83%
    17:00 +14°C° 0.3 mm 4 mps 743 mmHg 86%
    18:00 +13°C° 0.3 mm 4 mps 744 mmHg 89%
    19:00 +12°C° 0.3 mm 4 mps 744 mmHg 92%
    20:00 +11°C° 0.1 mm 4 mps 744 mmHg 94%
    21:00 +10°C° 0.1 mm 3 mps 745 mmHg 95%
    22:00 +9°C° 0.1 mm 3 mps 745 mmHg 97%
    23:00 +8°C° 0 mm 3 mps 745 mmHg 97%
    Show more